THORAD AGENA D DEB, 42522

Orbit data source: Space-Track

THORAD AGENA D DEB, 42522 is space debris in SSO originally from a launch on Wed, 08 Apr 1970 UTC launched from the Air Force Western Test Range (AFWTR). Debris objects in space refer to the collection of defunct objects orbiting the Earth. Examples of debris include non-operational satellites, rocket bodies, and fragments generated from explosions, collisions, or faulty payload assembly.

Loading next visibility...
Identifier
42522, 1970-025SC
Orbit
SSO
Country
Flag of USUS
Related business
Manufacturer
Unknown
Mission
Spacecraft
Bus & Motor
Unknown
Mass
Unknown
Launch date (UTC)
1970-04-08 (56 years ago)
Launch vehicle
Unknown
Launch site
Air Force Western Test Range (AFWTR)
Object type
Payload
Rocket body
Debris
Shape & HBR
Unknown shape, 0.1 m
Radar Cross Section
Small (<0.1 m²)

Expand to show TLE details & history
Last TLE update: 3 days ago

TLE from 3 days ago
0 THORAD AGENA D DEB
1 42522U 70025SC  26123.56453043  .00000424  00000-0  58241-3 0  9996
2 42522  99.6470 229.1310 0032157  85.1313 275.3499 13.64403369618833
Epoch: 2026-05-03T13:32Z
TLE epoch observation values (Epoch: 2026-05-03T13:32:55.429Z)
Latitude
-0.0001°
Longitude
164.4338°
Altitude
1,020.397 km
Speed
7.343 km/s
True Right ascension
15h 16m 31s
True Declination
0° 00' 00"
Sunlit
Object was in full shadow at epoch
Visualization orbit readout
Latitude
Unknown
Longitude
Unknown
Altitude
Unknown
Speed
Unknown
Apparent Right ascension
Unknown
Apparent Declination
Unknown
Sunlit
N/A
Visualization observer readout
Local Sidereal Time
05:08:04
Azimuth
Unknown
Elevation
Unknown
Doppler factor
Unknown
Orbital elements
Apogee altitude
1,040.792 km
Perigee altitude
993.231 km
Semi-major axis
7,395.149 km
Eccentricity
0.00322
Inclination
99.647°
RAAN
229.131°
Arg. of periapsis
85.1313°
True anomaly
274.98288°
Mean anomaly
275.3499°
Eccentric anomaly
275.1664°
Mean motion
3.41289 °/min
Orbital period
105.48 mins
BSTAR
0.00058241
Loading maneuver chart data...
Computing Atmospheric mass density...

Documentation

Showing up to 5 results
|